{"data":{"norad_id":58464,"intl_designator":"2023-185C","name":"KOYOH","alt_names":[],"object_type":"PAYLOAD","status":"ACTIVE","operator":null,"country":"JPN","launch_date":"2023-12-01","launch_site_code":"AFWTR","launch_vehicle":null,"mission":null,"orbit_class":"UNKNOWN","rcs_meters":null,"size_class":null,"mass_kg":null,"dimensions":null,"purposes":[],"wikipedia_slug":null,"has_3d_model":false,"image_url":null,"decayed_at":null,"tle_current":{"epoch":"2026-05-25T05:24:23.596704Z","epoch_age_seconds":65999,"freshness":"FRESH","line1":"1 58464U 23185C   26145.22527311  .00005736  00000+0  28608-3 0  9994","line2":"2 58464  97.5320 217.5613 0007558  38.6186 321.5587 15.17898162136646","mean_motion":15.17898162,"eccentricity":0.0007558,"inclination_deg":97.532,"raan_deg":217.5613,"arg_perigee_deg":38.6186,"mean_anomaly_deg":321.5587,"bstar":0.00028608,"rev_number":13664,"period_min":94.868024486085,"perigee_km":506.98627843635,"apogee_km":517.40170276174,"semimajor_km":6890.330990599,"source":"CELESTRAK","updated_at":"2026-05-25T13:38:00.764738Z"}}}